This demonstration page uses our WeatherBlox Daily Observations layout. Learn more.

Left ArrowRight Arrow

44.8408, -93.29828

Hourly Observations for July 21, 2017

Temp ( °F °C ) Dew Point ( °F °C ) Humidity (%) Winds ( mph kmh ) Pressure ( in mb ) Visibility ( mi km ) Precip ( " mm )
12:53 am 00:53 Mostly Clear 75 23.9 68 20 79 79 SSW 6 9 29.94 1014 9 14 0.00 0.00
1:53 am 01:53 Clear 73 22.8 68 20 84 84 WSW 3 6 29.97 1015 7 11 0.00 0.00
2:53 am 02:53 Clear 70 21.1 66 18.9 87 87 NNE 5 7 29.96 1015 7 11 0.00 0.00
3:53 am 03:53 Mostly Clear 70 21.1 67 19.4 90 90 ENE 7 11 29.93 1014 8 13 0.00 0.00
4:53 am 04:53 Partly Cloudy with Mist and Fog 70 21.1 67 19.4 90 90 SE 7 11 29.91 1013 6 10 0.00 0.00
5:53 am 05:53 Mostly Sunny 71 21.7 67 19.4 87 87 ESE 12 19 29.87 1012 8 13 0.00 0.00
6:53 am 06:53 Partly Cloudy 72 22.2 66 18.9 82 82 SE 12 19 29.88 1012 9 14 0.00 0.00
7:53 am 07:53 Cloudy 73 22.8 67 19.4 81 81 ESE 9 15 29.89 1012 10 16 0.00 0.00
8:53 am 08:53 Cloudy 73 22.8 66 18.9 79 79 SE 8 13 29.93 1014 10 16 0.00 0.00
9:53 am 09:53 Cloudy 73 22.8 66 18.9 79 79 SE 8 13 29.90 1013 10 16 0.00 0.00
10:53 am 10:53 Mostly Cloudy 74 23.3 67 19.4 79 79 SE 9 15 29.89 1012 9 14 0.00 0.03
11:53 am 11:53 Cloudy 74 23.3 67 19.4 79 79 S 13 20 29.86 1011 10 16 0.00 0.00
12:18 pm 12:18 Cloudy 74 23.3 68 20 82 82 SSE 8 13 29.85 1011 10 16 0.00 0.00
12:53 pm 12:53 Cloudy 75 23.9 69 20.6 82 82 SSE 14 22 29.87 1012 10 16 0.00 0.00
1:53 pm 13:53 Cloudy 77 25 68 20 74 74 SSE 14 22 29.87 1011 10 16 0.00 0.00
1:58 pm 13:58 Cloudy 77 25 68 20 74 74 S 9 15 29.85 1011 10 16 0.00 0.00
2:53 pm 14:53 Mostly Cloudy 80 26.7 68 20 67 67 S 10 17 29.83 1010 10 16 0.00 0.00
3:53 pm 15:53 Mostly Cloudy 82 27.8 68 20 63 63 SSW 12 19 29.83 1010 10 16 0.00 0.00
4:53 pm 16:53 Mostly Cloudy 82 27.8 67 19.4 60 60 S 10 17 29.84 1010 10 16 0.00 0.00
5:53 pm 17:53 Mostly Cloudy 83 28.3 66 18.9 57 57 S 12 19 29.81 1010 10 16 0.00 0.00
6:53 pm 18:53 Mostly Cloudy 81 27.2 68 20 65 65 SSE 10 17 29.78 1009 10 16 0.00 0.00
7:53 pm 19:53 Mostly Cloudy 80 26.7 67 19.4 64 64 SE 7 11 29.79 1009 10 16 0.00 0.00
8:53 pm 20:53 Mostly Cloudy 79 26.1 67 19.4 67 67 E 8 13 29.82 1010 10 16 0.00 0.00
9:53 pm 21:53 Mostly Cloudy 78 25.6 67 19.4 69 69 ESE 12 19 29.84 1010 10 16 0.00 0.00
10:53 pm 22:53 Cloudy 76 24.4 67 19.4 74 74 E 9 15 29.85 1011 10 16 0.00 0.00
11:53 pm 23:53 Mostly Cloudy 76 24.4 66 18.9 72 72 NE 15 24 29.84 1011 10 16 0.00 0.00

Powered by AerisWeather